DW0128 Weather Reports


Display with metric or nautical units.
time (UTC)temp
F
wind
direction
speed
MPH
gust
MPH
rain 1hr
in
rain 24hr
in
rain mn
in
humidity
%
barometer
mb
20180716161805 87 0 0.0 0.0 0.00 0.00 0.00 28 1013.0
20180716161305 88 0 0.0 0.0 0.00 0.00 0.00 27 1013.0
20180716160804 88 0 0.0 0.0 0.00 0.00 0.00 28 1013.0
20180716160305 87 0 0.0 0.0 0.00 0.00 0.00 27 1013.0
20180716154805 88 0 0.0 0.0 0.00 0.00 0.00 28 1013.0
20180716154305 88 0 0.0 0.0 0.00 0.00 0.00 28 1013.0
20180716153805 87 0 0.0 0.0 0.00 0.00 0.00 27 1013.0
20180716153305 88 0 0.0 0.0 0.00 0.00 0.00 27 1013.0
20180716151806 90 0 0.0 0.0 0.00 0.00 0.00 26 1013.0
20180716151305 90 0 0.0 0.0 0.00 0.00 0.00 26 1013.0
20180716150805 90 0 0.0 0.0 0.00 0.00 0.00 26 1013.0
20180716150305 90 0 0.0 0.0 0.00 0.00 0.00 25 1013.0
20180716144805 92 0 0.0 0.0 0.00 0.00 0.00 25 1013.0
20180716144305 91 0 0.0 0.0 0.00 0.00 0.00 24 1013.0
20180716143805 92 0 0.0 0.0 0.00 0.00 0.00 24 1013.0
20180716143305 92 0 0.0 0.0 0.00 0.00 0.00 24 1013.0
20180716141805 92 0 0.0 0.0 0.00 0.00 0.00 24 1013.0
20180716141305 93 0 0.0 0.0 0.00 0.00 0.00 24 1013.0
20180716140805 92 0 0.0 0.0 0.00 0.00 0.00 24 1013.0
20180716140305 91 0 0.0 0.0 0.00 0.00 0.00 24 1013.0
20180716134805 92 0 0.0 0.0 0.00 0.00 0.00 23 1013.0
20180716134305 92 0 0.0 0.0 0.00 0.00 0.00 23 1013.0
20180716133805 92 0 0.0 0.0 0.00 0.00 0.00 24 1013.0
20180716133305 92 0 0.0 0.0 0.00 0.00 0.00 24 1013.0
20180716131805 90 0 0.0 0.0 0.00 0.00 0.00 25 1013.0
20180716131305 93 0 0.0 0.0 0.00 0.00 0.00 23 1013.0
20180716130804 93 0 0.0 0.0 0.00 0.00 0.00 23 1014.0
20180716130305 93 0 0.0 0.0 0.00 0.00 0.00 24 1014.0
20180716124805 93 0 0.0 0.0 0.00 0.00 0.00 24 1014.0
20180716124305 94 0 0.0 0.0 0.00 0.00 0.00 23 1014.0
20180716123804 93 0 0.0 0.0 0.00 0.00 0.00 24 1014.0
20180716123304 93 0 0.0 0.0 0.00 0.00 0.00 23 1014.0
20180716121805 94 0 0.0 0.0 0.00 0.00 0.00 24 1014.0
20180716121305 93 0 0.0 0.0 0.00 0.00 0.00 23 1014.0
20180716120805 92 0 0.0 0.0 0.00 0.00 0.00 23 1014.0
20180716120305 93 0 0.0 0.0 0.00 0.00 0.00 23 1014.0
20180716114805 93 0 0.0 0.0 0.00 0.00 0.00 24 1013.0
20180716114305 93 0 0.0 0.0 0.00 0.00 0.00 24 1013.0
20180716113805 94 0 0.0 0.0 0.00 0.00 0.00 24 1014.0
20180716113304 94 0 0.0 0.0 0.00 0.00 0.00 24 1014.0
20180716111806 93 0 0.0 0.0 0.00 0.00 0.00 25 1014.0
20180716111305 92 0 0.0 0.0 0.00 0.00 0.00 26 1014.0
20180716110805 92 0 0.0 0.0 0.00 0.00 0.00 26 1014.0
20180716110306 91 0 0.0 0.0 0.00 0.00 0.00 27 1014.0
20180716104804 90 0 0.0 0.0 0.00 0.00 0.00 31 1013.0
20180716104305 89 0 0.0 0.0 0.00 0.00 0.00 32 1013.0
20180716103804 90 0 0.0 0.0 0.00 0.00 0.00 31 1013.0
20180716103304 88 0 0.0 0.0 0.00 0.00 0.00 33 1013.0
20180716101805 89 0 0.0 0.0 0.00 0.00 0.00 31 1014.0
20180716101305 91 0 0.0 0.0 0.00 0.00 0.00 31 1014.0
20180716100805 89 0 0.0 0.0 0.00 0.00 0.00 32 1013.0
20180716100305 88 0 0.0 0.0 0.00 0.00 0.00 31 1013.0
20180716094805 91 0 0.0 0.0 0.00 0.00 0.00 31 1013.0
20180716094305 90 0 0.0 0.0 0.00 0.00 0.00 30 1013.0
20180716093804 89 0 0.0 0.0 0.00 0.00 0.00 30 1014.0
20180716093304 89 0 0.0 0.0 0.00 0.00 0.00 30 1014.0
20180716091805 89 0 0.0 0.0 0.00 0.00 0.00 29 1014.0
20180716091305 89 0 0.0 0.0 0.00 0.00 0.00 29 1014.0
20180716090805 90 0 0.0 0.0 0.00 0.00 0.00 29 1014.0
20180716090305 91 0 0.0 0.0 0.00 0.00 0.00 29 1014.0
20180716084804 89 0 0.0 0.0 0.00 0.00 0.00 29 1014.0
20180716084304 89 0 0.0 0.0 0.00 0.00 0.00 29 1014.0
20180716083804 89 0 0.0 0.0 0.00 0.00 0.00 29 1013.0
20180716083304 88 0 0.0 0.0 0.00 0.00 0.00 29 1013.0
20180716081805 89 0 0.0 0.0 0.00 0.00 0.00 30 1014.0
20180716081304 88 0 0.0 0.0 0.00 0.00 0.00 29 1014.0
20180716080805 89 0 0.0 0.0 0.00 0.00 0.00 29 1014.0
20180716080304 89 0 0.0 0.0 0.00 0.00 0.00 29 1014.0
20180716074805 90 0 0.0 0.0 0.00 0.00 0.00 30 1014.0
20180716074305 89 0 0.0 0.0 0.00 0.00 0.00 31 1014.0
20180716073805 89 0 0.0 0.0 0.00 0.00 0.00 33 1014.0
20180716073304 89 0 0.0 0.0 0.00 0.00 0.00 31 1014.0
20180716071804 88 0 0.0 0.0 0.00 0.00 0.00 31 1014.0
20180716071305 88 0 0.0 0.0 0.00 0.00 0.00 33 1014.0
20180716070805 88 0 0.0 0.0 0.00 0.00 0.00 34 1014.0
20180716070304 87 0 0.0 0.0 0.00 0.00 0.00 34 1014.0
20180716064805 86 0 0.0 0.0 0.00 0.00 0.00 37 1014.0
20180716064305 86 0 0.0 0.0 0.00 0.00 0.00 37 1014.0
20180716063805 86 0 0.0 0.0 0.00 0.00 0.00 38 1014.0
20180716063305 86 0 0.0 0.0 0.00 0.00 0.00 38 1014.0
20180716061804 86 0 0.0 0.0 0.00 0.00 0.00 40 1014.0
20180716061305 85 0 0.0 0.0 0.00 0.00 0.00 40 1014.0
20180716060805 85 0 0.0 0.0 0.00 0.00 0.00 41 1014.0
20180716060304 84 0 0.0 0.0 0.00 0.00 0.00 43 1014.0
20180716054804 83 0 0.0 0.0 0.00 0.00 0.00 44 1014.0
20180716054304 82 0 0.0 0.0 0.00 0.00 0.00 44 1014.0
20180716053805 82 0 0.0 0.0 0.00 0.00 0.00 46 1014.0
20180716053305 82 0 0.0 0.0 0.00 0.00 0.00 47 1014.0
20180716051805 80 0 0.0 0.0 0.00 0.00 0.00 49 1014.0
20180716051304 80 0 0.0 0.0 0.00 0.00 0.00 49 1014.0
20180716050805 80 0 0.0 0.0 0.00 0.00 0.00 49 1014.0
20180716050305 79 0 0.0 0.0 0.00 0.00 0.00 52 1014.0
20180716044805 78 0 0.0 0.0 0.00 0.00 0.00 53 1014.0
20180716044304 77 0 0.0 0.0 0.00 0.00 0.00 55 1014.0
20180716043805 76 0 0.0 0.0 0.00 0.00 0.00 56 1014.0
20180716043305 76 0 0.0 0.0 0.00 0.00 0.00 56 1014.0
20180716041804 75 0 0.0 0.0 0.00 0.00 0.00 60 1014.0
20180716041304 75 0 0.0 0.0 0.00 0.00 0.00 63 1014.0
20180716040804 73 0 0.0 0.0 0.00 0.00 0.00 64 1014.0
20180716040304 73 0 0.0 0.0 0.00 0.00 0.00 64 1014.0
20180716034804 71 0 0.0 0.0 0.00 0.00 0.00 69 1014.0
20180716034304 70 0 0.0 0.0 0.00 0.00 0.00 71 1014.0
20180716033807 68 0 0.0 0.0 0.00 0.00 0.00 73 1014.0
20180716033305 67 0 0.0 0.0 0.00 0.00 0.00 73 1014.0
20180716031805 65 0 0.0 0.0 0.00 0.00 0.00 76 1014.0
20180716031304 65 0 0.0 0.0 0.00 0.00 0.00 78 1014.0
20180716030805 64 0 0.0 0.0 0.00 0.00 0.00 79 1014.0
20180716030305 63 0 0.0 0.0 0.00 0.00 0.00 80 1014.0
20180716024804 60 0 0.0 0.0 0.00 0.00 0.00 83 1014.0
20180716024304 59 0 0.0 0.0 0.00 0.00 0.00 83 1014.0
20180716023804 59 0 0.0 0.0 0.00 0.00 0.00 86 1014.0
20180716023304 59 0 0.0 0.0 0.00 0.00 0.00 87 1014.0
20180716021804 57 0 0.0 0.0 0.00 0.00 0.00 86 1014.0
20180716021305 56 0 0.0 0.0 0.00 0.00 0.00 86 1014.0
20180716020806 56 0 0.0 0.0 0.00 0.00 0.00 86 1014.0
20180716020305 56 0 0.0 0.0 0.00 0.00 0.00 86 1014.0
20180716014804 56 0 0.0 0.0 0.00 0.00 0.00 86 1013.0
20180716014305 56 0 0.0 0.0 0.00 0.00 0.00 86 1013.0
20180716013804 56 0 0.0 0.0 0.00 0.00 0.00 86 1014.0
20180716013304 56 0 0.0 0.0 0.00 0.00 0.00 86 1014.0
20180716011804 56 0 0.0 0.0 0.00 0.00 0.00 84 1014.0
20180716011317 56 0 0.0 0.0 0.00 0.00 0.00 84 1014.0
20180716010805 56 0 0.0 0.0 0.00 0.00 0.00 84 1014.0
20180716010304 56 0 0.0 0.0 0.00 0.00 0.00 84 1014.0
20180716004805 56 0 0.0 0.0 0.00 0.00 0.00 84 1014.0
20180716004305 56 0 0.0 0.0 0.00 0.00 0.00 84 1014.0
20180716003805 56 0 0.0 0.0 0.00 0.00 0.00 83 1014.0
20180716003304 56 0 0.0 0.0 0.00 0.00 0.00 84 1014.0
20180716001805 57 0 0.0 0.0 0.00 0.00 0.00 84 1014.0
20180716001304 57 0 0.0 0.0 0.00 0.00 0.00 84 1014.0
20180716000804 57 0 0.0 0.0 0.00 0.00 0.00 83 1015.0
20180716000304 57 0 0.0 0.0 0.00 0.00 0.00 83 1015.0
20180715234805 57 0 0.0 0.0 0.00 0.00 0.00 82 1014.0
20180715234304 57 0 0.0 0.0 0.00 0.00 0.00 82 1014.0
20180715233804 57 0 0.0 0.0 0.00 0.00 0.00 81 1013.0
20180715233306 57 0 0.0 0.0 0.00 0.00 0.00 81 1013.0
20180715231805 57 0 0.0 0.0 0.00 0.00 0.00 80 1014.0
20180715231304 58 0 0.0 0.0 0.00 0.00 0.00 80 1014.0
20180715230804 58 0 0.0 0.0 0.00 0.00 0.00 81 1013.0
20180715230304 58 0 0.0 0.0 0.00 0.00 0.00 80 1013.0
20180715224804 59 0 0.0 0.0 0.00 0.00 0.00 80 1014.0
20180715224304 59 0 0.0 0.0 0.00 0.00 0.00 79 1014.0
20180715223804 59 0 0.0 0.0 0.00 0.00 0.00 78 1014.0
20180715223304 59 0 0.0 0.0 0.00 0.00 0.00 78 1014.0
20180715221804 60 0 0.0 0.0 0.00 0.00 0.00 76 1014.0
20180715221304 60 0 0.0 0.0 0.00 0.00 0.00 76 1014.0
20180715220804 60 0 0.0 0.0 0.00 0.00 0.00 76 1014.0
20180715220305 60 0 0.0 0.0 0.00 0.00 0.00 75 1014.0
20180715214811 60 0 0.0 0.0 0.00 0.00 0.00 73 1014.0
20180715214311 61 0 0.0 0.0 0.00 0.00 0.00 72 1014.0
20180715213811 61 0 0.0 0.0 0.00 0.00 0.00 72 1013.0
20180715213310 62 0 0.0 0.0 0.00 0.00 0.00 72 1013.0
20180715211811 62 0 0.0 0.0 0.00 0.00 0.00 69 1014.0
20180715211311 63 0 0.0 0.0 0.00 0.00 0.00 67 1014.0
20180715210811 63 0 0.0 0.0 0.00 0.00 0.00 67 1014.0
20180715210311 64 0 0.0 0.0 0.00 0.00 0.00 66 1014.0
20180715204812 65 0 0.0 0.0 0.00 0.00 0.00 64 1014.0
20180715204312 66 0 0.0 0.0 0.00 0.00 0.00 64 1014.0
20180715203811 67 0 0.0 0.0 0.00 0.00 0.00 62 1014.0
20180715203311 67 0 0.0 0.0 0.00 0.00 0.00 62 1014.0
20180715201811 68 0 0.0 0.0 0.00 0.00 0.00 59 1014.0
20180715201311 68 0 0.0 0.0 0.00 0.00 0.00 58 1014.0
20180715200811 69 0 0.0 0.0 0.00 0.00 0.00 58 1014.0
20180715200311 69 0 0.0 0.0 0.00 0.00 0.00 57 1014.0
20180715194813 71 0 0.0 0.0 0.00 0.00 0.00 56 1013.0
20180715194311 71 0 0.0 0.0 0.00 0.00 0.00 55 1013.0
20180715193811 71 0 0.0 0.0 0.00 0.00 0.00 54 1014.0
20180715193311 72 0 0.0 0.0 0.00 0.00 0.00 53 1014.0
20180715191811 73 0 0.0 0.0 0.00 0.00 0.00 51 1013.0
20180715191311 74 0 0.0 0.0 0.00 0.00 0.00 49 1013.0
20180715190811 74 0 0.0 0.0 0.00 0.00 0.00 48 1013.0
20180715190311 75 0 0.0 0.0 0.00 0.00 0.00 47 1013.0
20180715184811 76 0 0.0 0.0 0.00 0.00 0.00 43 1013.0
20180715184311 77 0 0.0 0.0 0.00 0.00 0.00 41 1013.0
20180715183811 77 0 0.0 0.0 0.00 0.00 0.00 40 1013.0
20180715183312 78 0 0.0 0.0 0.00 0.00 0.00 40 1013.0
20180715181811 79 0 0.0 0.0 0.00 0.00 0.00 39 1013.0
20180715181311 79 0 0.0 0.0 0.00 0.00 0.00 38 1013.0
20180715180810 80 0 0.0 0.0 0.00 0.00 0.00 38 1013.0
20180715180311 80 0 0.0 0.0 0.00 0.00 0.00 38 1013.0
20180715174811 80 0 0.0 0.0 0.00 0.00 0.00 37 1013.0
20180715174311 80 0 0.0 0.0 0.00 0.00 0.00 37 1013.0
20180715173810 80 0 0.0 0.0 0.00 0.00 0.00 36 1012.0
20180715173311 81 0 0.0 0.0 0.00 0.00 0.00 35 1012.0
20180715171811 82 0 0.0 0.0 0.00 0.00 0.00 33 1013.0
20180715171311 83 0 0.0 0.0 0.00 0.00 0.00 33 1013.0
20180715170811 83 0 0.0 0.0 0.00 0.00 0.00 32 1012.0
20180715170311 83 0 0.0 0.0 0.00 0.00 0.00 32 1012.0
20180715164811 84 0 0.0 0.0 0.00 0.00 0.00 31 1012.0
20180715164311 84 0 0.0 0.0 0.00 0.00 0.00 31 1012.0
20180715163811 84 0 0.0 0.0 0.00 0.00 0.00 31 1012.0
20180715163311 84 0 0.0 0.0 0.00 0.00 0.00 32 1012.0